"2010-11-13 00:00:00",331501,1.832,82.4,1.985,0.1,2.287,100.7821,1.295,2.239,41.51,0,109.6,13.56,2.05,44.4
"2010-11-13 00:00:30",331502,3.109,87.8,6.094,1.224,5,100.7839,1.299,2.381,41.54,0,109.6,13.53,2.06,49.8
"2010-11-13 00:01:00",331503,4.068,90.7,5.657,0.702,6.738,100.7861,1.305,2.453,41.65,0,109.6,13.53,2.06,52.7
"2010-11-13 00:01:30",331504,4.108,95.3,4.232,0.691,7.687,100.7887,1.312,2.547,41.69,0,109.6,13.53,2.07,57.3
"2010-11-13 00:02:00",331505,3.617,92.2,5.483,1.168,6.041,100.7924,1.321,2.435,41.83,0,109.6,13.53,2.08,54.2
"2010-11-13 00:02:30",331506,2.308,83.3,0.825,0.056,2.194,100.7947,1.327,2.199,42.54,0,109.6,13.57,2.08,45.3
"2010-11-13 00:03:00",331507,2.369,83.3,1.554,0.058,2.066,100.7879,1.31,2.196,42.64,0,109.6,13.57,2.07,45.3
"2010-11-13 00:03:30",331508,3.201,87.7,5.995,1.141,4.395,100.7707,1.266,2.348,42.79,0,109.6,13.53,2.02,49.7
"2010-11-13 00:04:00",331509,4.077,91,5.5,1.207,6.619,100.7659,1.253,2.441,42.69,0,109.6,13.54,2.01,53.0
"2010-11-13 00:04:30",331510,4.618,92.2,4.844,0.563,7.73,100.7653,1.252,2.467,42.32,0,109.6,13.53,2.01,54.2
"2010-11-13 00:05:00",331511,4.175,91.2,5.697,1.02,7.141,100.7673,1.257,2.44,42.28,0,109.6,13.54,2.01,53.2
"2010-11-13 00:05:30",331512,2.503,83.1,4.019,0.759,2.696,100.7676,1.258,2.156,41.92,0,109.6,13.54,2.01,45.1
"2010-11-13 00:06:00",331513,2.203,80.6,1.887,0.114,2.104,100.7701,1.264,2.152,41.99,0,109.6,13.57,2.02,42.6
"2010-11-13 00:06:30",331514,2.529,82.3,3.793,0.646,2.997,100.773,1.272,2.264,42.2,0,109.6,13.54,2.03,44.3
"2010-11-13 00:07:00",331515,4.546,92.5,4.734,0.901,6.79,100.7753,1.277,2.343,42.32,0,109.6,13.54,2.03,54.5
"2010-11-13 00:07:30",331516,4.592,92.1,4.47,0.796,7.47,100.7761,1.28,2.426,42.29,0,109.6,13.54,2.04,54.1
"2010-11-13 00:08:00",331517,4.292,91.6,4.733,0.922,6.855,100.7741,1.275,2.389,42.16,0,109.6,13.54,2.03,53.6
"2010-11-13 00:08:30",331518,3.569,90.5,6.083,1.215,5.242,100.7744,1.275,2.366,42.69,0,109.6,13.54,2.03,52.5
"2010-11-13 00:09:00",331519,2.401,83.4,0.881,0.083,2.071,100.7738,1.274,2.148,42.39,0,109.6,13.57,2.03,45.4
"2010-11-13 00:09:30",331520,3.518,89.1,6.077,1.253,3.649,100.7747,1.276,2.168,42.6,0,109.6,13.54,2.03,51.1
"2010-11-13 00:10:00",331521,3.476,88.1,6.34,1.171,4.336,100.7764,1.28,2.298,42.82,0,109.6,13.54,2.04,50.1
"2010-11-13 00:10:30",331522,4.67,95.1,5.103,0.907,7.036,100.7733,1.272,2.433,42.65,0,109.6,13.54,2.03,57.1
"2010-11-13 00:11:00",331523,4.569,95.8,4.849,0.989,6.946,100.7767,1.281,2.396,42.29,0,109.6,13.54,2.04,57.8
"2010-11-13 00:11:30",331524,3.877,91.5,6.337,1.162,5.708,100.7801,1.29,2.388,41.99,0,109.6,13.54,2.05,53.5
"2010-11-13 00:12:00",331525,2.831,82.8,7.348,1.259,3.429,100.7807,1.291,2.131,41.51,0,109.6,13.54,2.05,44.8
"2010-11-13 00:12:30",331526,2.538,80.2,5.864,1.034,2.679,100.781,1.292,2.135,41.43,0,109.6,13.54,2.05,42.2
"2010-11-13 00:13:00",331527,2.796,83.8,6.45,1.161,3.953,100.781,1.292,2.301,41.51,0,109.6,13.54,2.05,45.8
"2010-11-13 00:13:30",331528,4.364,93.2,4.159,0.865,7.18,100.781,1.292,2.395,41.87,0,109.6,13.54,2.05,55.2
"2010-11-13 00:14:00",331529,4.028,86.1,6.075,1.053,6.811,100.781,1.292,2.436,41.75,0,109.6,13.54,2.05,48.1
"2010-11-13 00:14:30",331530,3.267,82.6,6.534,1.276,5.217,100.781,1.292,2.365,41.57,0,109.6,13.53,2.05,44.6
"2010-11-13 00:15:00",331531,3.263,82,6.013,1.237,4.638,100.781,1.292,2.289,41.5,0,109.6,13.54,2.05,44.0
"2010-11-13 00:15:30",331532,2.064,77.31,0.883,0.05,2.031,100.781,1.292,2.165,41.85,0,109.6,13.57,2.05,39.3
"2010-11-13 00:16:00",331533,3.125,83.1,6.132,1.223,4.151,100.781,1.292,2.276,42.43,0,109.6,13.54,2.05,45.1
"2010-11-13 00:16:30",331534,3.376,83.7,6.508,1.244,5.164,100.7742,1.275,2.339,42.5,0,109.6,13.55,2.03,45.7
"2010-11-13 00:17:00",331535,4.057,86.9,5.673,1.081,6.422,100.7649,1.251,2.356,42.58,0,109.6,13.55,2.01,48.9
"2010-11-13 00:17:30",331536,4.39,88.7,4.703,0.763,7.31,100.7583,1.234,2.4,42.94,0,109.6,13.55,1.99,50.7
"2010-11-13 00:18:00",331537,3.278,84.8,6.58,1.241,4.814,100.7524,1.219,2.305,42.82,0,109.6,13.55,1.98,46.8
"2010-11-13 00:18:30",331538,2.059,78.59,0.375,0.026,2.373,100.7473,1.206,2.127,42.71,0,109.6,13.55,1.96,40.6
"2010-11-13 00:19:00",331539,2.028,77.92,0.554,0.034,2.199,100.747,1.205,2.171,42.88,0,109.6,13.55,1.96,39.9
"2010-11-13 00:19:30",331540,3.893,88.5,5.724,1.145,5.87,100.747,1.205,2.301,42.97,0,109.6,13.55,1.96,50.5
"2010-11-13 00:20:00",331541,3.823,89.8,5.226,1.167,6.632,100.747,1.205,2.347,42.96,0,109.6,13.55,1.96,51.8
"2010-11-13 00:20:30",331542,3.876,88.7,5.794,1.083,6.525,100.7473,1.206,2.348,42.83,0,109.6,13.55,1.96,50.7
"2010-11-13 00:21:00",331543,3.113,84.4,6.396,1.259,4.907,100.747,1.205,2.271,42.57,0,109.6,13.55,1.96,46.4
"2010-11-13 00:21:30",331544,2.09,79.58,4.201,0.655,3.297,100.7482,1.208,2.261,42.64,0,109.6,13.55,1.96,41.6
"2010-11-13 00:22:00",331545,2.537,79.08,5.468,1.121,3.578,100.7482,1.208,2.16,41.93,0,109.6,13.55,1.96,41.1
"2010-11-13 00:22:30",331546,2.887,78.25,6.244,1.23,4.062,100.7598,1.238,2.216,41.81,0,109.6,13.56,1.99,40.2
"2010-11-13 00:23:00",331547,4.074,84.5,2.732,0.873,6.605,100.7703,1.265,2.373,41.92,0,109.6,13.56,2.02,46.5
"2010-11-13 00:23:30",331548,3.407,77.64,6.174,1.22,5.406,100.7842,1.3,2.362,41.84,0,109.6,13.56,2.06,39.6
"2010-11-13 00:24:00",331549,3.664,78.65,5.338,1.081,5.775,100.795,1.328,2.311,41.88,0,109.6,13.56,2.08,40.7
"2010-11-13 00:24:30",331550,2.155,71.33,4.431,0.874,3.292,100.7964,1.331,2.329,41.81,0,109.6,13.56,2.09,33.3
"2010-11-13 00:25:00",331551,2.534,70.42,5.723,1.16,2.999,100.7984,1.336,2.167,41.82,0,109.6,13.56,2.09,32.4
"2010-11-13 00:25:30",331552,2.362,70.62,5.532,1.064,3.645,100.8021,1.346,2.343,42.02,0,109.6,13.56,2.10,32.6
"2010-11-13 00:26:00",331553,3.505,78.34,5.734,1.116,6.031,100.8038,1.35,2.441,42.07,0,109.6,13.56,2.11,40.3
"2010-11-13 00:26:30",331554,3.214,80.8,6.332,1.165,5.83,100.8061,1.356,2.419,41.73,0,109.6,13.56,2.11,42.8
"2010-11-13 00:27:00",331555,3.218,82.2,5.821,1.241,5.784,100.8061,1.356,2.434,41.83,0,109.6,13.56,2.11,44.2
"2010-11-13 00:27:30",331556,2.735,79.62,6.854,1.313,4.509,100.8084,1.362,2.267,41.73,0,109.6,13.56,2.12,41.6
"2010-11-13 00:28:00",331557,2.665,75.79,4.61,1.207,4.534,100.8066,1.358,2.344,41.88,0,109.6,13.55,2.11,37.8
"2010-11-13 00:28:30",331558,1.41,65.64,1.169,0.224,2.272,100.8084,1.362,2.262,41.85,0,109.6,13.56,2.12,27.6
"2010-11-13 00:29:00",331559,3.491,75.86,5.869,1.022,5.979,100.8081,1.361,2.351,41.94,0,109.6,13.55,2.12,37.9
"2010-11-13 00:29:30",331560,3.588,77.23,6.244,0.991,6.134,100.8092,1.364,2.438,41.82,0,109.6,13.56,2.12,39.2
"2010-11-13 00:30:00",331561,2.848,78.56,6.564,1.256,4.699,100.8089,1.363,2.369,41.84,0,109.6,13.56,2.12,40.6
"2010-11-13 00:30:30",331562,1.968,76.55,5.604,0.947,3.403,100.8107,1.368,2.336,41.8,0,109.6,13.55,2.12,38.6
"2010-11-13 00:31:00",331563,2.806,80.7,6.493,1.262,4.505,100.7976,1.335,2.353,41.66,0,109.6,13.56,2.09,42.7
"2010-11-13 00:31:30",331564,1.567,75.06,1.383,0.022,2.493,100.7823,1.296,2.308,41.61,0,109.6,13.59,2.05,37.1
"2010-11-13 00:32:00",331565,1.707,78.48,4.373,0.76,2.966,100.7798,1.289,2.249,41.77,0,109.6,13.56,2.05,40.5
"2010-11-13 00:32:30",331566,3.311,86.5,5.798,1.07,6.009,100.7793,1.288,2.362,42.05,0,109.6,13.56,2.04,48.5
"2010-11-13 00:33:00",331567,3.206,83.1,5.378,1.163,5.982,100.7807,1.291,2.46,42.2,0,109.6,13.56,2.05,45.1
"2010-11-13 00:33:30",331568,2.501,79.27,6.92,1.239,4.429,100.7813,1.293,2.302,41.95,0,109.6,13.56,2.05,41.3
"2010-11-13 00:34:00",331569,2.603,79.46,5.843,1.222,4.355,100.7855,1.304,2.231,41.85,0,109.6,13.56,2.06,41.5
"2010-11-13 00:34:30",331570,1.63,73.65,3.579,0.504,2.773,100.7934,1.324,2.29,41.96,0,109.6,13.56,2.08,35.7
"2010-11-13 00:35:00",331571,2.622,80.6,5.744,1.219,4.245,100.7962,1.331,2.232,41.87,0,109.6,13.57,2.09,42.6
"2010-11-13 00:35:30",331572,3.072,83.9,6.273,1.246,5.372,100.7951,1.328,2.337,41.97,0,109.6,13.57,2.08,45.9
"2010-11-13 00:36:00",331573,3.419,86.2,6.376,1.119,6.131,100.7937,1.325,2.382,42.01,0,109.6,13.57,2.08,48.2
"2010-11-13 00:36:30",331574,2.499,84.3,5.387,1.194,4.586,100.7858,1.304,2.358,41.97,0,109.6,13.57,2.06,46.3
"2010-11-13 00:37:00",331575,2.73,88.5,5.993,1.254,4.745,100.7815,1.293,2.251,41.82,0,109.6,13.57,2.05,50.5
"2010-11-13 00:37:30",331576,1.716,85.7,0.772,0.019,2.683,100.7813,1.293,2.298,41.89,0,109.6,13.6,2.05,47.7
"2010-11-13 00:38:00",331577,2.925,93.7,6.185,1.242,4.666,100.7813,1.293,2.238,41.83,0,109.6,13.57,2.05,55.7
"2010-11-13 00:38:30",331578,2.451,91.2,4.925,1.063,3.184,100.7813,1.293,2.212,41.82,0,109.6,13.57,2.05,53.2
"2010-11-13 00:39:00",331579,3.187,94.8,6.255,1.24,4.756,100.7813,1.293,2.35,41.72,0,109.6,13.57,2.05,56.8
"2010-11-13 00:39:30",331580,3.235,96.9,6.73,1.253,4.927,100.7778,1.284,2.432,41.59,0,109.6,13.57,2.04,58.9
"2010-11-13 00:40:00",331581,2.923,97,6.484,1.231,4.682,100.7662,1.254,2.328,41.37,0,109.6,13.57,2.01,59.0
"2010-11-13 00:40:30",331582,2.974,97,6.668,1.287,4.077,100.7603,1.239,2.174,41.18,0,109.6,13.57,2.00,59.0
"2010-11-13 00:41:00",331583,2.059,93.2,3.745,0.63,3.096,100.7535,1.222,2.26,40.94,0,109.6,13.57,1.98,55.2
"2010-11-13 00:41:30",331584,3.3,97.8,6.308,1.227,4.454,100.7481,1.208,2.145,40.88,0,109.6,13.57,1.96,59.8
"2010-11-13 00:42:00",331585,2.619,94.8,5.658,1.159,4.194,100.7476,1.207,2.275,41.02,0,109.6,13.57,1.96,56.8
"2010-11-13 00:42:30",331586,3.39,97.5,5.972,1.219,5.102,100.7473,1.206,2.325,40.84,0,109.6,13.57,1.96,59.5
"2010-11-13 00:43:00",331587,3.579,99.5,6.01,1.161,5.666,100.7473,1.206,2.341,40.77,0,109.6,13.57,1.96,61.5
"2010-11-13 00:43:30",331588,2.226,91.5,4.707,0.876,3.031,100.7473,1.206,2.249,40.55,0,109.6,13.57,1.96,53.5
"2010-11-13 00:44:00",331589,3.787,98.8,6.313,1.133,5.591,100.7473,1.206,2.191,40.34,0,109.6,13.57,1.96,60.8
"2010-11-13 00:44:30",331590,2.461,92.9,5.8,1.015,4.103,100.7473,1.206,2.292,40.33,0,109.6,13.57,1.96,54.9
"2010-11-13 00:45:00",331591,2.932,94.7,6.407,1.288,4.458,100.7473,1.206,2.168,40.05,0,109.6,13.57,1.96,56.7
"2010-11-13 00:45:30",331592,2.929,95,6.468,1.196,4.427,100.7473,1.206,2.297,40.15,0,109.6,13.57,1.96,57.0
"2010-11-13 00:46:00",331593,2.746,92.4,6.505,1.21,3.885,100.7473,1.206,2.171,40.01,0,109.6,13.57,1.96,54.4
"2010-11-13 00:46:30",331594,3.239,93.7,6.529,1.225,4.977,100.7473,1.206,2.294,40.2,0,109.6,13.57,1.96,55.7
"2010-11-13 00:47:00",331595,2.486,92,5.946,1.181,4.102,100.7473,1.206,2.246,40.11,0,109.6,13.57,1.96,54.0
"2010-11-13 00:47:30",331596,3.079,93.9,6.447,1.264,5.054,100.7473,1.206,2.253,40.41,0,109.6,13.57,1.96,55.9
"2010-11-13 00:48:00",331597,3.012,92.6,6.393,1.242,4.989,100.7473,1.206,2.23,40.72,0,109.6,13.57,1.96,54.6
"2010-11-13 00:48:30",331598,2.719,92,6.474,1.248,4.127,100.7473,1.206,2.124,40.94,0,109.6,13.57,1.96,54.0
"2010-11-13 00:49:00",331599,1.863,89,4.145,0.627,2.709,100.7377,1.182,2.22,41.25,0,109.6,13.58,1.94,51.0
"2010-11-13 00:49:30",331600,2.747,93.4,6.195,1.255,4.371,100.7243,1.148,2.284,41.37,0,109.6,13.58,1.90,55.4
"2010-11-13 00:50:00",331601,3.086,92.2,6.756,1.235,4.884,100.7167,1.128,2.217,41.52,0,109.6,13.58,1.88,54.2
"2010-11-13 00:50:30",331602,2.036,86.9,4.622,1.008,3.364,100.7133,1.119,2.138,41.53,0,109.6,13.58,1.88,48.9
"2010-11-13 00:51:00",331603,2.107,87.6,5.946,1.029,4.02,100.7136,1.12,2.239,41.72,0,109.6,13.58,1.88,49.6
"2010-11-13 00:51:30",331604,2.857,92.2,6.032,1.225,5.681,100.7133,1.119,2.29,41.88,0,109.6,13.58,1.88,54.2
"2010-11-13 00:52:00",331605,2.742,91.7,5.993,1.232,4.039,100.7136,1.12,2.073,41.78,0,109.6,13.58,1.88,53.7
"2010-11-13 00:52:30",331606,1.78,87.7,2.429,0.635,1.911,100.7136,1.12,2.019,41.87,0,109.6,13.58,1.88,49.7
"2010-11-13 00:53:00",331607,2.792,93,6.519,1.266,4.37,100.7147,1.123,2.155,42.03,0,109.6,13.58,1.88,55.0
"2010-11-13 00:53:30",331608,3.586,95.7,5.572,1.034,6.015,100.713,1.119,2.155,42.09,0,109.6,13.59,1.87,57.7
"2010-11-13 00:54:00",331609,2.629,90,6.586,1.263,4.489,100.7046,1.097,2.044,42.05,0,109.6,13.59,1.85,52.0
"2010-11-13 00:54:30",331610,3.219,92.1,5.986,1.219,5.809,100.6952,1.073,2.217,42.23,0,109.6,13.59,1.83,54.1
"2010-11-13 00:55:00",331611,2.969,89.9,6.252,1.238,4.941,100.6916,1.064,2.214,42.32,0,109.6,13.59,1.82,51.9
"2010-11-13 00:55:30",331612,1.818,81.6,3.875,0.751,2.16,100.687,1.052,1.975,42.25,0,109.6,13.59,1.81,43.6
"2010-11-13 00:56:00",331613,1.689,80.8,0.477,0.489,1.638,100.6873,1.053,1.967,42.36,0,109.6,13.59,1.81,42.8
"2010-11-13 00:56:30",331614,3.063,87.7,6.752,1.235,5.238,100.6899,1.06,2.183,42.81,0,109.6,13.59,1.82,49.7
"2010-11-13 00:57:00",331615,2.469,84.2,5.523,1.265,4.372,100.6797,1.034,2.022,42.78,0,109.6,13.59,1.79,46.2
"2010-11-13 00:57:30",331616,2.844,87.4,6.836,1.264,5.582,100.6755,1.023,2.148,42.9,0,109.5,13.59,1.78,49.4
"2010-11-13 00:58:00",331617,3.368,83.7,5.848,1.059,5.857,100.6732,1.017,2.092,42.91,0,109.6,13.59,1.77,45.7
"2010-11-13 00:58:30",331618,1.647,71.55,4.188,0.633,1.962,100.6633,0.992,1.963,42.86,0,109.6,13.59,1.75,33.6
"2010-11-13 00:59:00",331619,1.401,69.14,0.523,0.038,1.471,100.661,0.986,1.893,42.84,0,109.5,13.62,1.74,31.1
"2010-11-13 00:59:30",331620,2.061,72.83,4.789,1.097,2.768,100.6622,0.989,1.966,42.72,0,109.6,13.59,1.74,34.8
"2010-11-13 01:00:00",331621,3.627,72.57,5.94,1.176,5.453,100.6631,0.991,2.105,44.86,0,109.6,13.59,1.75,34.6
"2010-11-13 01:00:30",331622,3.503,71.97,6.781,1.21,5.052,100.6319,0.912,2.094,48.18,0,109.6,13.59,1.67,34.0
"2010-11-13 01:01:00",331623,3.486,76.4,6.509,1.166,5.094,100.6019,0.835,2.033,47.52,0,109.5,13.59,1.59,38.4
"2010-11-13 01:01:30",331624,4.031,79.18,5.76,1.11,4.967,100.5784,0.775,1.969,49.67,0,109.6,13.58,1.53,41.2
"2010-11-13 01:02:00",331625,2.417,68.48,4.06,0.879,1.96,100.5543,0.714,1.692,49.84,0,109.6,13.58,1.47,30.5
"2010-11-13 01:02:30",331626,2.597,71.69,5.734,1.077,2.811,100.5331,0.66,1.696,47.95,0,109.5,13.58,1.41,33.7
"2010-11-13 01:03:00",331627,3.3,75.95,6.322,1.217,5.35,100.5396,0.676,1.872,46.36,0,109.6,13.58,1.43,37.9
"2010-11-13 01:03:30",331628,3.495,73.31,6.428,1.141,4.504,100.5614,0.732,1.793,47.43,0,109.5,13.58,1.49,35.3
"2010-11-13 01:04:00",331629,3.914,77.38,5.739,1.209,4.779,100.5357,0.666,1.776,49.73,0,109.5,13.58,1.42,39.4
"2010-11-13 01:04:30",331630,3.88,74.58,6.251,1.284,4.513,100.5329,0.659,1.812,49.85,0,109.5,13.58,1.41,36.6
"2010-11-13 01:05:00",331631,3.623,73.81,7.244,1.321,3.949,100.5094,0.599,1.612,49.76,0,109.5,13.58,1.35,35.8
"2010-11-13 01:05:30",331632,3.486,72.33,5.934,1.359,3.037,100.5011,0.578,1.612,49.58,0,109.5,13.59,1.33,34.3
"2010-11-13 01:06:00",331633,4.377,76.74,5.689,1.165,5.014,100.5011,0.578,1.745,50.67,0,109.5,13.59,1.33,38.7
"2010-11-13 01:06:30",331634,4.546,81.2,5.613,1.03,6.133,100.4946,0.562,1.734,50.79,0,109.5,13.59,1.32,43.2
"2010-11-13 01:07:00",331635,3.35,72.7,7.066,1.246,4.007,100.4836,0.534,1.646,50.22,0,109.5,13.59,1.29,34.7
"2010-11-13 01:07:30",331636,4.206,73.51,5.728,1.11,5.315,100.4912,0.553,1.652,49.44,0,109.5,13.59,1.31,35.5
"2010-11-13 01:08:00",331637,3.004,66.07,6.775,1.108,2.595,100.5031,0.583,1.452,49.06,0,109.5,13.59,1.34,28.1
"2010-11-13 01:08:30",331638,3.254,69.36,6.423,1.193,3.319,100.5017,0.58,1.599,49.15,0,109.5,13.59,1.33,31.4
"2010-11-13 01:09:00",331639,4.173,77,5.747,1.189,5.533,100.5017,0.58,1.7,49.59,0,109.5,13.59,1.33,39.0
"2010-11-13 01:09:30",331640,4.39,80.4,4.748,0.937,6.213,100.5014,0.579,1.638,49.74,0,109.5,13.59,1.33,42.4
"2010-11-13 01:10:00",331641,3.558,76.41,5.864,1.228,4.373,100.5023,0.581,1.638,49.68,0,109.5,13.59,1.34,38.4
"2010-11-13 01:10:30",331642,3.568,77.33,6.461,1.207,4.269,100.5034,0.584,1.701,49.47,0,109.5,13.59,1.34,39.3
"2010-11-13 01:11:00",331643,3.514,75.66,7.712,1.24,3.609,100.5051,0.588,1.556,48.85,0,109.5,13.59,1.34,37.7
"2010-11-13 01:11:30",331644,3.49,76.55,7.519,1.253,3.816,100.5054,0.589,1.605,48.74,0,109.5,13.59,1.34,38.6
"2010-11-13 01:12:00",331645,3.938,75.79,6.224,1.226,5.076,100.5057,0.59,1.67,48.77,0,109.5,13.59,1.34,37.8
"2010-11-13 01:12:30",331646,4.014,74.46,6.27,1.164,5.405,100.5066,0.592,1.69,48.32,0,109.5,13.59,1.35,36.5
"2010-11-13 01:13:00",331647,2.837,67.65,4.265,0.928,2.823,100.5074,0.594,1.517,47.98,0,109.5,13.59,1.35,29.7
"2010-11-13 01:13:30",331648,3.723,71.33,6.074,1.187,4.515,100.508,0.596,1.647,48.15,0,109.6,13.59,1.35,33.3
"2010-11-13 01:14:00",331649,3.719,71.3,6.354,1.211,3.969,100.51,0.601,1.64,48.57,0,109.5,13.59,1.35,33.3
"2010-11-13 01:14:30",331650,3.611,70.07,5.593,1.172,3.03,100.5094,0.599,1.59,50.51,0,109.5,13.59,1.35,32.1
"2010-11-13 01:15:00",331651,4.493,74.82,5.856,1.189,5.137,100.5063,0.591,1.648,51.26,0,109.5,13.6,1.35,36.8
"2010-11-13 01:15:30",331652,4.455,72.19,5.808,1.214,5.221,100.485,0.537,1.724,51.46,0,109.5,13.6,1.29,34.2
"2010-11-13 01:16:00",331653,4.011,68.52,6.439,1.216,4.48,100.476,0.514,1.568,51.46,0,109.5,13.6,1.27,30.5
"2010-11-13 01:16:30",331654,4.503,70.23,5.863,1.178,4.933,100.4757,0.513,1.653,51.71,0,109.5,13.6,1.27,32.2
"2010-11-13 01:17:00",331655,3.702,65.34,5.946,1.176,2.738,100.4757,0.513,1.375,51.83,0,109.5,13.59,1.27,27.3
"2010-11-13 01:17:30",331656,4.121,69.17,6.374,1.248,4.361,100.4709,0.501,1.627,52.21,0,109.5,13.59,1.25,31.2
"2010-11-13 01:18:00",331657,4.251,68.73,6.219,1.241,4.721,100.457,0.466,1.593,52.12,0,109.5,13.59,1.22,30.7
"2010-11-13 01:18:30",331658,4.335,68.46,6.095,1.221,4.752,100.4488,0.445,1.538,52.08,0,109.5,13.59,1.20,30.5
"2010-11-13 01:19:00",331659,4.057,67.19,6.236,1.233,4.203,100.4446,0.434,1.551,52.14,0,109.5,13.59,1.19,29.2
"2010-11-13 01:19:30",331660,4.071,66.83,6.194,1.192,4.19,100.4417,0.427,1.518,52.13,0,109.5,13.59,1.18,28.8
"2010-11-13 01:20:00",331661,4.014,66.76,6.344,1.239,4.212,100.4417,0.427,1.565,52.28,0,109.5,13.59,1.18,28.8
"2010-11-13 01:20:30",331662,4.936,69.41,5.812,0.944,5.495,100.4417,0.427,1.556,52.53,0,109.5,13.59,1.18,31.4
"2010-11-13 01:21:00",331663,4.668,68.21,6.095,1.147,5.377,100.4417,0.427,1.58,52.66,0,109.5,13.59,1.18,30.2
"2010-11-13 01:21:30",331664,4.771,68.44,5.47,1.1,5.499,100.4417,0.427,1.56,52.67,0,109.5,13.59,1.18,30.4
"2010-11-13 01:22:00",331665,3.644,63.56,5.536,1.132,3.57,100.4417,0.427,1.395,52.55,0,109.5,13.59,1.18,25.6
"2010-11-13 01:22:30",331666,4.148,67.7,6.243,1.247,4.61,100.4417,0.427,1.548,52.62,0,109.5,13.6,1.18,29.7
"2010-11-13 01:23:00",331667,4.268,69.82,5.999,1.151,4.47,100.4417,0.427,1.465,52.29,0,109.5,13.6,1.18,31.8
"2010-11-13 01:23:30",331668,4.231,72.72,5.438,1.172,5.25,100.4417,0.427,1.56,52.01,0,109.5,13.6,1.18,34.7
"2010-11-13 01:24:00",331669,4.358,73.61,5.487,1.099,5.512,100.4454,0.436,1.53,51.62,0,109.5,13.6,1.19,35.6
"2010-11-13 01:24:30",331670,4.322,75.1,5.399,1.04,5.74,100.4533,0.456,1.499,51.81,0,109.5,13.6,1.21,37.1
"2010-11-13 01:25:00",331671,2.55,65.67,0.518,0.443,2.127,100.4618,0.478,1.442,51.62,0,109.5,13.6,1.23,27.7
"2010-11-13 01:25:30",331672,4.215,76.09,5.279,1.124,5.116,100.4743,0.51,1.503,51.64,0,109.5,13.6,1.26,38.1
"2010-11-13 01:26:00",331673,3.258,70.46,6.098,1.078,3.087,100.4723,0.505,1.53,52.14,0,109.5,13.6,1.26,32.5
"2010-11-13 01:26:30",331674,4.573,77.16,5.663,1.068,5.527,100.4584,0.469,1.592,52.29,0,109.5,13.6,1.22,39.2
"2010-11-13 01:27:00",331675,4.488,76.06,5.824,1.145,5.215,100.4457,0.437,1.583,52.13,0,109.5,13.6,1.19,38.1
"2010-11-13 01:27:30",331676,4.311,77.17,5.653,1.167,5.624,100.442,0.427,1.551,52.08,0,109.5,13.6,1.18,39.2
"2010-11-13 01:28:00",331677,2.93,69.09,2.851,0.77,2.063,100.4417,0.427,1.406,52.06,0,109.5,13.6,1.18,31.1
"2010-11-13 01:28:30",331678,3.867,75.28,6.522,1.245,4.435,100.4417,0.427,1.516,52.13,0,109.5,13.6,1.18,37.3
"2010-11-13 01:29:00",331679,3.611,73.3,5.958,1.222,3.335,100.4417,0.427,1.427,52.19,0,109.5,13.6,1.18,35.3
"2010-11-13 01:29:30",331680,4.686,77.3,5.356,0.939,5.85,100.4417,0.427,1.549,52.29,0,109.5,13.6,1.18,39.3
"2010-11-13 01:30:00",331681,4.431,74.77,6.184,1.111,4.815,100.4417,0.427,1.541,52.24,0,109.5,13.6,1.18,36.8
"2010-11-13 01:30:30",331682,3.836,73.8,6.32,1.202,4.494,100.4417,0.427,1.561,52.42,0,109.5,13.6,1.18,35.8
"2010-11-13 01:31:00",331683,3.636,75.15,5.644,1.188,3.755,100.4417,0.427,1.41,52.19,0,109.5,13.6,1.18,37.2
"2010-11-13 01:31:30",331684,3.706,77.14,6.237,1.202,3.739,100.4417,0.427,1.425,51.73,0,109.5,13.6,1.18,39.1
"2010-11-13 01:32:00",331685,3.588,77.3,6.404,1.207,3.73,100.4417,0.427,1.498,51.51,0,109.5,13.6,1.18,39.3
"2010-11-13 01:32:30",331686,4.47,82.2,5.398,0.967,5.452,100.4429,0.43,1.527,51.34,0,109.5,13.6,1.18,44.2
"2010-11-13 01:33:00",331687,4.123,79.81,6.261,1.171,5.001,100.4519,0.453,1.578,51.47,0,109.5,13.6,1.21,41.8
"2010-11-13 01:33:30",331688,3.631,74.13,6.95,1.254,4.297,100.4528,0.455,1.475,51.82,0,109.5,13.6,1.21,36.1
"2010-11-13 01:34:00",331689,3.519,72.8,5.998,1.202,3.94,100.4457,0.437,1.502,51.84,0,109.5,13.6,1.19,34.8
"2010-11-13 01:34:30",331690,2.531,67.5,2.476,0.635,1.596,100.4426,0.429,1.399,51.67,0,109.5,13.6,1.18,29.5
"2010-11-13 01:35:00",331691,3.655,75.25,6.374,1.203,4.591,100.4477,0.442,1.566,51.3,0,109.5,13.6,1.20,37.2
"2010-11-13 01:35:30",331692,4.21,76.49,4.688,0.956,5.674,100.4692,0.497,1.594,49.63,0,109.5,13.6,1.25,38.5
"2010-11-13 01:36:00",331693,3.761,75.31,6.221,1.158,4.844,100.4757,0.513,1.54,49.24,0,109.5,13.6,1.27,37.3
"2010-11-13 01:36:30",331694,3.526,75.09,6.408,1.224,4.965,100.476,0.514,1.628,49.18,0,109.5,13.6,1.27,37.1
"2010-11-13 01:37:00",331695,3.095,73.23,6.002,1.178,3.35,100.4799,0.524,1.425,48.3,0,109.5,13.6,1.28,35.2
"2010-11-13 01:37:30",331696,2.872,72.68,6.286,1.157,3.206,100.4933,0.558,1.529,48.19,0,109.5,13.6,1.31,34.7
"2010-11-13 01:38:00",331697,3.215,73.12,6.056,1.214,3.19,100.5009,0.578,1.498,48.78,0,109.5,13.61,1.33,35.1
"2010-11-13 01:38:30",331698,3.744,76.64,6.181,1.2,4.811,100.5012,0.578,1.65,50.05,0,109.5,13.61,1.33,38.6
"2010-11-13 01:39:00",331699,4.083,78.55,4.827,1.085,6.069,100.4933,0.558,1.698,50.35,0,109.5,13.61,1.31,40.6
"2010-11-13 01:39:30",331700,3.703,73.11,6.465,1.205,4.643,100.4887,0.547,1.659,50.84,0,109.5,13.6,1.30,35.1
"2010-11-13 01:40:00",331701,3.104,67.99,5.553,1.12,2.891,100.4771,0.517,1.466,50.75,0,109.5,13.61,1.27,30.0
"2010-11-13 01:40:30",331702,2.237,66.24,0.756,0.034,1.546,100.476,0.514,1.416,50.89,0,109.5,13.64,1.27,28.2
"2010-11-13 01:41:00",331703,2.943,72.02,6.2,1.156,3.472,100.4757,0.513,1.593,50.96,0,109.5,13.61,1.27,34.0
"2010-11-13 01:41:30",331704,3.485,76.35,6.035,1.244,4.598,100.476,0.514,1.658,50.19,0,109.5,13.61,1.27,38.3
"2010-11-13 01:42:00",331705,3.45,77.61,6.21,1.248,4.574,100.4763,0.515,1.673,50.1,0,109.5,13.61,1.27,39.6
"2010-11-13 01:42:30",331706,3.915,81,5.693,1.147,5.525,100.4757,0.513,1.652,50.31,0,109.5,13.61,1.27,43.0
"2010-11-13 01:43:00",331707,2.833,73.91,5.87,1.019,2.852,100.4783,0.52,1.443,50.69,0,109.5,13.61,1.27,35.9
"2010-11-13 01:43:30",331708,2.656,71.13,4.136,0.774,1.89,100.4768,0.516,1.4,50.82,0,109.5,13.61,1.27,33.1
"2010-11-13 01:44:00",331709,3.092,73.89,5.53,1.068,2.393,100.4692,0.497,1.472,50.72,0,109.5,13.61,1.25,35.9
"2010-11-13 01:44:30",331710,4.335,81.8,5.629,1.117,5.361,100.4471,0.44,1.609,50.81,0,109.5,13.61,1.19,43.8
"2010-11-13 01:45:00",331711,4.635,85.2,3.821,0.79,6.321,100.4434,0.431,1.66,51.16,0,109.5,13.62,1.18,47.2
"2010-11-13 01:45:30",331712,3.974,81.5,6.291,1.183,4.854,100.4429,0.43,1.57,51.22,0,109.5,13.61,1.18,43.5
"2010-11-13 01:46:00",331713,3.869,81.5,6.007,1.221,4.58,100.4431,0.43,1.476,51.31,0,109.5,13.61,1.18,43.5
"2010-11-13 01:46:30",331714,2.349,75.21,0.471,0.036,1.822,100.4429,0.43,1.378,51.18,0,109.5,13.64,1.18,37.2
"2010-11-13 01:47:00",331715,3.945,83.2,6.328,1.197,4.758,100.442,0.427,1.448,51.28,0,109.5,13.61,1.18,45.2
"2010-11-13 01:47:30",331716,3.886,83.3,6.356,1.195,5.04,100.4451,0.435,1.567,51.49,0,109.5,13.62,1.19,45.3
"2010-11-13 01:48:00",331717,4.434,87.5,3.171,0.852,6.347,100.4437,0.432,1.569,51.48,0,109.5,13.62,1.19,49.5
"2010-11-13 01:48:30",331718,3.586,83.1,6.431,1.23,4.986,100.4434,0.431,1.582,51.5,0,109.5,13.62,1.18,45.1
"2010-11-13 01:49:00",331719,3.531,80.5,6.572,1.265,4.119,100.4434,0.431,1.51,51.15,0,109.5,13.62,1.18,42.5
"2010-11-13 01:49:30",331720,2.215,76.06,0.502,0.033,1.611,100.4443,0.433,1.324,51.02,0,109.5,13.64,1.19,38.1
"2010-11-13 01:50:00",331721,3.462,83.5,6.305,1.252,4.071,100.4454,0.436,1.448,51.55,0,109.5,13.6,1.19,45.5